Theta_e
326 325 325 324 325 324 325 327 327 327 326 326 325 324 323 323 321 313 307 313 314 327 321 312 312 311 312 311 311 310 304 301 302 303 303 308 305 308 310 309 312 315 314 322 336
325 325 325 325 325 324 326 327 327 326 326 325 324 323 322 322 311 307 319 324 325 328 310 309 306 309 307 308 308 306 303 304 307 306 305 307 306 306 305 307 308 312 319 329 334
324 324 324 324 324 324 325 326 325 325 324 324 323 323 322 319 305 305 327 326 327 325 312 311 310 307 305 307 306 306 303 305 304 305 308 306 305 308 305 304 307 307 315 327 330
323 323 323 324 324 324 325 324 325 324 323 323 323 322 321 313 295 310 325 328 329 318 311 308 306 304 302 301 305 302 302 304 304 304 306 305 307 305 307 307 309 311 317 325 328
322 322 322 322 323 324 324 324 324 323 322 322 322 322 314 304 303 315 324 326 321 312 309 307 304 304 300 302 302 301 301 303 304 304 306 306 305 305 306 309 309 310 317 323 326
320 321 321 321 322 324 324 324 323 322 321 321 322 321 309 297 311 316 316 316 312 310 308 308 305 306 302 301 301 303 301 300 303 303 303 304 303 303 306 308 307 309 314 321 324
320 320 320 321 321 322 323 323 322 321 321 320 321 313 305 302 313 315 312 311 311 311 307 309 309 305 304 299 302 302 298 300 300 301 300 303 299 300 303 304 305 307 311 316 322
320 319 319 320 321 321 322 323 322 321 321 322 322 311 300 310 315 311 311 309 311 310 309 310 309 306 304 303 300 298 300 295 299 300 300 300 298 304 303 302 303 304 308 312 317
319 318 319 319 319 320 321 321 320 321 321 322 312 307 298 311 307 311 311 307 308 309 309 308 308 304 302 298 295 296 292 295 294 300 299 298 298 301 302 302 302 304 305 307 312
318 318 318 319 319 319 320 319 320 320 318 314 310 300 301 300 307 309 310 309 305 306 304 304 303 298 299 296 289 292 292 294 294 296 297 296 297 299 301 301 302 303 304 305 306
318 318 318 318 319 320 318 315 306 305 306 299 300 298 300 307 308 306 308 306 306 303 296 301 296 293 295 298 298 297 295 293 296 296 296 296 297 299 302 302 302 303 303 304 305
317 318 318 318 319 319 315 304 304 306 297 305 305 302 304 306 299 303 307 301 300 295 299 296 293 298 300 299 296 296 294 293 294 295 296 296 295 299 301 301 302 303 304 305 305
317 317 317 318 318 316 311 306 312 309 295 298 303 301 302 304 299 300 304 302 298 295 296 293 295 299 297 295 294 294 293 293 293 294 295 294 293 296 300 301 302 303 304 303 303
317 317 317 317 312 313 308 313 315 310 289 291 296 299 303 304 297 304 305 302 298 294 296 295 297 296 295 293 295 291 296 295 293 292 288 293 287 295 298 297 298 300 301 302 303
317 317 317 317 312 308 311 317 317 307 279 294 295 307 304 298 298 298 303 300 295 296 296 293 293 293 293 294 296 293 296 295 294 292 290 290 288 293 296 294 296 299 301 302 303
316 316 316 314 315 313 317 317 309 288 278 289 296 295 295 297 297 299 299 301 300 295 295 294 296 297 296 295 297 296 294 294 293 292 284 290 289 290 293 294 297 298 301 301 302
316 315 315 314 308 315 317 307 288 281 293 289 290 294 293 292 294 295 294 293 291 288 288 292 292 294 296 292 295 295 292 285 283 283 283 289 288 291 297 295 297 298 299 301 301
315 315 313 312 313 315 311 295 281 287 288 294 292 293 289 292 292 293 292 290 294 293 290 286 284 292 295 294 291 292 292 286 280 281 284 286 284 291 298 296 297 300 301 300 300
315 313 311 310 313 314 300 285 285 290 293 292 292 288 288 291 291 291 291 291 293 294 289 288 287 294 294 295 296 291 288 294 286 282 285 287 290 295 296 295 296 298 298 298 299
310 307 307 311 313 307 294 288 290 295 296 294 287 290 286 288 289 289 290 294 293 295 297 292 286 291 292 295 295 293 295 286 288 282 281 285 287 289 292 293 295 296 297 298 299
306 301 307 311 309 298 286 289 293 296 298 293 291 289 290 289 290 288 290 294 296 295 296 294 291 287 291 290 289 290 289 290 290 289 284 282 286 296 295 297 296 297 298 299 298
293 287 307 309 291 292 288 293 296 295 299 296 297 294 292 292 289 289 289 292 297 296 290 294 292 286 288 293 295 294 291 291 286 284 287 286 286 294 295 299 299 298 299 299 299
286 287 298 304 284 285 292 294 295 295 295 295 294 295 295 292 288 291 292 297 297 295 292 294 291 284 284 289 293 290 291 292 292 293 287 285 287 296 295 297 299 299 299 298 298
286 284 287 296 298 291 289 291 291 298 296 297 296 297 293 291 294 291 292 294 297 296 297 295 292 288 284 287 290 287 289 291 291 288 286 287 289 293 294 295 297 298 298 297 296
285 285 285 285 289 292 292 291 290 290 297 298 294 295 293 289 290 290 293 294 294 296 296 295 287 289 291 292 292 291 289 290 288 290 286 289 290 293 296 297 297 299 297 296 295
287 286 286 287 291 291 291 289 289 292 294 293 293 295 295 292 292 290 293 293 292 294 293 295 287 290 285 291 290 288 291 291 290 290 290 291 290 297 299 300 299 298 297 295 295
290 290 289 286 288 289 288 290 291 294 293 297 296 295 294 296 298 299 299 298 297 293 292 292 288 286 284 288 287 283 287 290 291 293 292 287 292 297 296 297 298 298 297 296 296
Wind_Speed
20 20 21 20 17 14 12 11 10 9 9 8 8 7 6 6 5 5 11 4 4 6 5 5 4 2 6 4 3 1 6 9 9 10 10 13 9 5 3 7 4 5 4 3 18
21 20 20 20 18 18 15 12 10 8 8 8 6 6 7 6 7 12 6 6 9 10 6 8 4 5 6 4 5 5 7 8 5 4 12 15 9 11 8 8 7 8 7 12 17
21 19 19 19 19 17 15 14 11 9 9 9 7 6 6 6 6 8 13 10 8 8 4 3 4 8 8 5 6 6 10 6 4 5 9 13 7 7 6 8 8 11 12 15 16
19 20 19 18 18 18 17 14 12 11 10 9 10 7 6 5 8 3 2 9 9 9 7 7 6 6 6 6 4 8 1 4 6 5 7 13 10 7 8 7 6 4 15 15 16
19 19 18 17 17 17 18 16 14 11 10 9 10 9 5 8 9 3 5 10 10 11 13 12 11 8 8 7 4 3 6 5 8 6 7 8 9 4 8 7 4 5 10 14 15
21 18 18 18 17 18 17 17 15 13 12 10 9 11 2 16 3 4 7 10 11 13 12 12 9 9 6 5 11 4 7 8 7 8 4 8 5 4 6 6 7 7 10 12 14
21 17 17 18 18 17 17 16 16 13 11 10 9 5 8 10 0 5 8 7 7 10 10 12 5 8 6 4 3 10 8 7 7 5 4 3 5 9 9 6 9 10 9 10 13
23 21 17 18 17 18 17 16 14 12 11 10 8 4 7 2 3 6 6 5 7 5 3 3 5 4 4 7 5 7 8 9 7 6 3 5 10 13 8 7 8 9 11 10 12
24 22 19 17 21 17 17 16 13 12 12 9 7 7 9 4 5 7 7 8 9 5 4 4 2 3 5 11 8 8 11 16 6 7 4 9 7 11 5 7 9 10 10 11 11
25 23 23 20 22 21 19 17 14 13 10 6 2 6 7 6 6 7 4 11 6 10 7 6 6 8 10 13 15 15 12 14 11 10 7 10 11 4 6 6 8 8 11 10 11
25 26 26 24 24 26 21 13 10 6 10 6 7 1 6 8 5 7 6 9 7 12 11 12 11 15 17 15 13 15 14 13 6 2 7 13 12 13 11 7 8 9 10 10 9
26 26 26 25 28 25 17 11 18 7 9 1 4 2 1 2 7 10 7 10 10 13 13 7 15 16 14 12 5 9 15 11 4 3 4 5 12 12 13 14 13 10 11 10 8
30 30 27 26 29 19 19 15 7 10 7 4 2 7 3 3 6 16 13 9 16 18 17 13 11 10 9 10 13 11 13 10 3 6 2 4 10 13 10 14 11 10 7 1 6
30 29 29 30 19 17 19 9 6 3 5 5 5 6 6 5 5 5 8 6 7 18 17 13 4 13 13 16 13 13 5 8 11 10 6 3 6 10 12 11 12 13 10 9 8
30 31 31 29 12 18 19 10 7 2 7 16 10 5 8 9 12 8 1 3 11 13 8 8 10 14 14 17 15 6 9 9 6 6 3 7 6 12 7 11 14 14 11 8 6
28 33 33 16 11 17 11 10 4 6 9 9 13 14 11 11 5 8 11 2 4 7 6 4 3 9 6 4 10 14 11 8 3 4 8 12 10 9 12 10 10 11 10 9 8
27 31 29 12 14 16 11 5 6 8 11 11 12 15 23 12 9 14 20 15 12 12 13 6 7 4 5 11 8 11 15 5 5 6 6 4 6 15 4 4 6 12 12 10 8
26 26 25 7 16 16 13 13 8 17 21 6 14 14 20 18 9 11 19 19 22 17 15 13 10 14 11 8 11 17 17 7 7 6 6 3 11 7 2 6 3 4 11 10 9
28 13 12 5 19 13 16 19 16 22 20 13 19 23 14 13 7 10 18 20 20 20 13 15 11 6 6 3 14 14 12 3 6 1 2 8 9 11 8 6 7 9 9 10 9
11 13 9 18 20 14 15 20 16 10 20 19 13 17 24 23 15 19 20 15 17 21 16 6 8 2 4 3 4 9 12 6 5 5 5 9 10 11 7 13 12 13 13 11 10
4 12 14 23 17 13 23 20 18 7 15 20 14 15 22 22 21 15 14 9 24 19 16 6 1 4 6 12 15 7 9 8 5 8 5 5 8 5 11 15 17 16 15 14 13
2 6 14 23 13 9 15 22 16 13 10 16 9 8 18 22 19 16 20 15 17 16 20 11 4 6 12 3 2 13 17 19 8 10 6 2 10 3 2 2 12 14 13 13 12
3 2 5 25 13 17 8 22 16 18 16 14 13 13 7 16 10 17 13 5 12 18 15 11 7 6 1 4 6 10 12 14 17 0 8 6 12 2 2 4 7 13 14 12 13
2 5 1 8 9 18 14 21 15 16 17 9 7 9 10 13 12 16 13 4 8 15 4 15 4 15 17 17 11 11 17 17 18 5 16 12 23 11 6 8 10 13 14 14 13
1 1 1 13 10 20 17 20 18 13 8 13 7 16 14 8 17 7 17 5 3 3 8 10 9 11 19 9 1 9 15 17 17 23 17 25 23 28 11 13 15 12 14 16 17
1 2 2 3 11 22 18 19 27 19 17 19 14 14 16 12 11 12 12 10 8 6 13 8 3 10 5 7 4 2 11 22 24 25 22 24 21 26 13 11 13 17 18 18 17
2 2 2 2 10 13 15 16 21 19 3 12 14 13 14 11 5 1 8 9 7 11 15 11 7 4 8 6 6 6 28 13 18 23 21 24 34 17 13 12 13 14 19 22 21
Wind_Direction
191 182 177 173 183 184 194 195 189 186 197 188 190 159 157 146 123 199 230 208 177 166 202 164 149 245 249 209 215 284 245 200 182 184 141 157 160 159 87 133 168 140 31 47 126
189 185 181 176 178 180 183 184 182 187 181 187 185 164 156 174 216 230 204 190 152 174 190 190 162 195 228 211 186 228 228 205 153 116 155 168 172 150 171 158 175 159 116 134 140
190 181 185 180 175 178 174 169 173 177 173 178 169 177 151 194 237 237 172 187 193 178 248 204 204 196 246 223 184 186 225 127 138 96 147 158 158 156 190 181 178 188 159 159 155
189 184 180 185 177 172 165 169 166 167 164 174 161 171 144 192 215 83 125 180 174 186 189 162 192 192 233 208 175 190 19 141 135 135 155 160 146 176 193 79 36 111 149 165 176
184 182 178 180 178 171 163 160 160 161 158 181 163 147 145 207 248 104 123 152 168 178 192 186 184 200 229 208 188 216 152 108 115 144 154 135 170 140 197 133 100 133 157 175 185
185 180 176 173 171 165 159 153 156 155 162 164 177 143 200 222 82 140 139 154 185 186 196 195 197 205 260 228 218 136 146 117 136 142 136 173 156 203 173 143 175 161 184 187 196
180 181 170 163 168 163 152 149 152 152 149 163 169 180 225 216 65 157 165 162 178 200 191 207 237 192 143 165 145 153 128 135 148 165 121 216 193 219 132 163 187 197 190 201 198
176 171 168 164 162 156 147 143 143 143 146 156 172 199 232 74 146 164 173 139 163 178 260 183 222 170 252 123 140 177 174 174 155 177 128 224 221 203 150 199 200 203 202 192 205
170 163 167 161 149 146 137 128 126 136 140 147 159 226 225 132 180 165 184 165 150 140 115 123 179 179 158 177 174 199 203 205 155 210 158 207 228 134 165 211 225 210 209 197 211
166 162 161 159 144 143 131 126 124 132 147 157 264 204 180 185 143 155 165 161 162 143 132 174 195 203 206 204 200 188 223 199 192 188 213 196 234 174 196 224 225 214 217 206 208
169 164 164 155 145 139 128 136 139 159 194 179 190 246 137 108 140 177 167 165 150 172 175 190 203 211 207 217 241 200 199 193 182 135 213 222 240 233 209 232 235 223 216 214 203
166 166 159 158 149 148 163 174 173 134 159 16 318 124 195 230 147 170 186 174 173 180 186 176 213 208 222 216 202 202 201 176 121 140 237 191 247 244 237 229 234 233 219 210 183
172 169 161 156 150 160 180 182 121 157 144 167 196 185 162 201 182 173 189 177 180 182 189 200 199 204 182 190 206 201 200 168 165 152 214 251 253 237 225 230 222 240 252 264 222
168 165 160 154 152 171 190 168 181 199 130 186 202 216 149 214 184 122 219 193 185 196 193 222 148 178 191 205 204 202 259 161 142 176 219 225 261 198 213 207 210 215 215 214 195
171 165 164 159 145 176 170 158 159 231 178 162 163 137 160 185 128 179 147 203 171 160 182 167 159 178 203 202 198 229 162 171 168 217 256 197 258 249 151 218 218 210 199 196 184
171 166 160 181 145 166 147 154 186 121 218 170 147 176 159 187 151 116 176 61 31 143 220 103 30 199 207 80 193 130 121 107 148 200 244 228 223 244 208 229 228 172 183 181 177
174 169 165 170 159 151 146 144 122 190 157 167 182 176 184 172 162 183 183 191 175 170 185 144 170 132 169 120 147 172 169 160 209 207 246 27 199 247 208 194 194 186 181 181 173
170 172 171 177 146 148 163 169 192 186 188 169 160 165 186 156 183 192 184 197 217 216 182 182 194 181 173 209 171 194 194 180 199 207 204 99 229 244 253 99 107 176 168 167 174
167 173 175 198 154 170 174 178 201 177 182 147 152 163 184 182 155 171 200 205 201 205 218 190 181 105 189 133 159 190 217 269 106 72 197 201 245 264 174 186 187 175 161 179 171
184 176 183 158 154 174 182 201 199 170 159 163 172 180 181 185 179 192 186 206 204 201 225 193 183 204 111 163 229 216 167 178 229 185 233 234 251 248 204 215 198 190 197 183 172
227 175 159 152 158 175 193 197 186 167 170 178 185 183 190 185 191 191 196 201 196 188 210 208 232 130 157 209 180 174 186 225 247 225 221 243 247 260 230 205 197 195 190 182 176
357 119 163 146 166 192 198 194 176 167 198 200 187 180 192 179 193 192 216 198 192 163 195 191 98 155 197 68 319 242 213 201 198 206 239 9 268 132 194 198 189 182 180 176 175
69 116 314 158 167 189 168 200 179 176 176 179 205 181 194 173 175 203 198 128 183 179 184 168 174 114 166 242 211 227 214 239 232 328 195 200 257 34 92 148 168 174 172 171 169
164 141 54 203 184 173 177 187 174 183 173 182 140 162 156 177 206 196 210 142 184 193 208 162 159 208 210 215 147 203 212 212 221 206 233 220 252 199 180 173 176 177 176 176 179
35 179 352 176 183 173 176 180 174 165 195 179 185 199 176 159 192 200 197 119 166 171 181 178 204 223 244 241 208 199 202 210 211 224 214 233 235 253 198 195 197 181 172 182 188
273 186 104 107 153 168 179 182 192 175 170 197 210 193 196 192 192 177 179 172 179 179 195 210 231 217 266 230 212 236 227 212 212 226 233 248 255 252 259 180 175 188 186 193 192
169 156 298 113 160 169 188 167 188 178 230 214 200 178 200 215 165 10 180 179 167 168 185 174 145 134 229 120 103 286 229 217 225 231 229 234 245 249 235 202 199 187 196 201 195